Year,Month,Day,Hour,Minute,Value (Times are PST for temperature in C)
2012,09,15,00,00,14.40
2012,09,15,00,01,14.40
2012,09,15,00,02,14.40
2012,09,15,00,03,14.30
2012,09,15,00,04,14.30
2012,09,15,00,05,14.30
2012,09,15,00,06,14.30
2012,09,15,00,07,14.30
2012,09,15,00,08,14.30
2012,09,15,00,09,14.30
2012,09,15,00,10,14.30
2012,09,15,00,11,14.30
2012,09,15,00,12,14.20
2012,09,15,00,13,14.20
2012,09,15,00,14,14.20
2012,09,15,00,15,14.20
2012,09,15,00,16,14.20
2012,09,15,00,17,14.20
2012,09,15,00,18,14.20
2012,09,15,00,19,14.20
2012,09,15,00,20,14.20
2012,09,15,00,21,14.20
2012,09,15,00,22,14.20
2012,09,15,00,23,14.20
2012,09,15,00,24,14.20
2012,09,15,00,25,14.30
2012,09,15,00,26,14.30
2012,09,15,00,27,14.40
2012,09,15,00,28,14.40
2012,09,15,00,29,14.40
2012,09,15,00,30,14.50
2012,09,15,00,31,14.50
2012,09,15,00,32,14.60
2012,09,15,00,33,14.60
2012,09,15,00,34,14.60
2012,09,15,00,35,14.60
2012,09,15,00,36,14.70
2012,09,15,00,37,14.70
2012,09,15,00,38,14.80
2012,09,15,00,39,14.80
2012,09,15,00,40,14.90
2012,09,15,00,41,14.90
2012,09,15,00,42,15.00
2012,09,15,00,43,15.00
2012,09,15,00,44,15.10
2012,09,15,00,45,15.10
2012,09,15,00,46,15.10
2012,09,15,00,47,15.20
2012,09,15,00,48,15.20
2012,09,15,00,49,15.20
2012,09,15,00,50,15.10
2012,09,15,00,51,15.10
2012,09,15,00,52,15.10
2012,09,15,00,53,15.00
2012,09,15,00,54,15.00
2012,09,15,00,55,14.90
2012,09,15,00,56,14.90
2012,09,15,00,57,14.80
2012,09,15,00,58,14.80
2012,09,15,00,59,14.70
2012,09,15,01,00,14.70
2012,09,15,01,01,14.60
2012,09,15,01,02,14.60
2012,09,15,01,03,14.60
2012,09,15,01,04,14.50
2012,09,15,01,05,14.50
2012,09,15,01,06,14.40
2012,09,15,01,07,14.40
2012,09,15,01,08,14.30
2012,09,15,01,09,14.30
2012,09,15,01,10,14.20
2012,09,15,01,11,14.20
2012,09,15,01,12,14.20
2012,09,15,01,13,14.10
2012,09,15,01,14,14.10
2012,09,15,01,15,14.10
2012,09,15,01,16,14.10
2012,09,15,01,17,14.10
2012,09,15,01,18,14.10
2012,09,15,01,19,14.00
2012,09,15,01,20,14.00
2012,09,15,01,21,14.00
2012,09,15,01,22,14.00
2012,09,15,01,23,14.00
2012,09,15,01,24,14.10
2012,09,15,01,25,14.10
2012,09,15,01,26,14.10
2012,09,15,01,27,14.20
2012,09,15,01,28,14.20
2012,09,15,01,29,14.20
2012,09,15,01,30,14.20
2012,09,15,01,31,14.20
2012,09,15,01,32,14.20
2012,09,15,01,33,14.20
2012,09,15,01,34,14.20
2012,09,15,01,35,14.20
2012,09,15,01,36,14.20
2012,09,15,01,37,14.20
2012,09,15,01,38,14.20
2012,09,15,01,39,14.20
2012,09,15,01,40,14.10
2012,09,15,01,41,14.10
2012,09,15,01,42,14.10
2012,09,15,01,43,14.00
2012,09,15,01,44,14.00
2012,09,15,01,45,13.90
2012,09,15,01,46,13.90
2012,09,15,01,47,13.90
2012,09,15,01,48,13.80
2012,09,15,01,49,13.80
2012,09,15,01,50,13.70
2012,09,15,01,51,13.70
2012,09,15,01,52,13.60
2012,09,15,01,53,13.60
2012,09,15,01,54,13.50
2012,09,15,01,55,13.50
2012,09,15,01,56,13.50
2012,09,15,01,57,13.40
2012,09,15,01,58,13.40
2012,09,15,01,59,13.30
2012,09,15,02,00,13.30
2012,09,15,02,01,13.30
2012,09,15,02,02,13.20
2012,09,15,02,03,13.20
2012,09,15,02,04,13.20
2012,09,15,02,05,13.20
2012,09,15,02,06,13.10
2012,09,15,02,07,13.10
2012,09,15,02,08,13.10
2012,09,15,02,09,13.10
2012,09,15,02,10,13.10
2012,09,15,02,11,13.10
2012,09,15,02,12,13.00
2012,09,15,02,13,13.00
2012,09,15,02,14,13.00
2012,09,15,02,15,13.00
2012,09,15,02,16,13.00
2012,09,15,02,17,13.00
2012,09,15,02,18,12.90
2012,09,15,02,19,12.90
2012,09,15,02,20,12.90
2012,09,15,02,21,12.90
2012,09,15,02,22,12.90
2012,09,15,02,23,12.90
2012,09,15,02,24,12.90
2012,09,15,02,25,12.90
2012,09,15,02,26,12.90
2012,09,15,02,27,12.90
2012,09,15,02,28,12.90
2012,09,15,02,29,12.90
2012,09,15,02,30,12.90
2012,09,15,02,31,12.90
2012,09,15,02,32,12.80
2012,09,15,02,33,12.80
2012,09,15,02,34,12.80
2012,09,15,02,35,12.80
2012,09,15,02,36,12.80
2012,09,15,02,37,12.80
2012,09,15,02,38,12.80
2012,09,15,02,39,12.80
2012,09,15,02,40,12.80
2012,09,15,02,41,12.70
2012,09,15,02,42,12.70
2012,09,15,02,43,12.70
2012,09,15,02,44,12.70
2012,09,15,02,45,12.70
2012,09,15,02,46,12.70
2012,09,15,02,47,12.60
2012,09,15,02,48,12.60
2012,09,15,02,49,12.60
2012,09,15,02,50,12.60
2012,09,15,02,51,12.60
2012,09,15,02,52,12.60
2012,09,15,02,53,12.50
2012,09,15,02,54,12.50
2012,09,15,02,55,12.50
2012,09,15,02,56,12.50
2012,09,15,02,57,12.50
2012,09,15,02,58,12.40
2012,09,15,02,59,12.40
2012,09,15,03,00,12.40
2012,09,15,03,01,12.40
2012,09,15,03,02,12.40
2012,09,15,03,03,12.40
2012,09,15,03,04,12.40
2012,09,15,03,05,12.40
2012,09,15,03,06,12.40
2012,09,15,03,07,12.40
2012,09,15,03,08,12.30
2012,09,15,03,09,12.30
2012,09,15,03,10,12.30
2012,09,15,03,11,12.30
2012,09,15,03,12,12.30
2012,09,15,03,13,12.30
2012,09,15,03,14,12.30
2012,09,15,03,15,12.30
2012,09,15,03,16,12.20
2012,09,15,03,17,12.20
2012,09,15,03,18,12.20
2012,09,15,03,19,12.20
2012,09,15,03,20,12.10
2012,09,15,03,21,12.10
2012,09,15,03,22,12.10
2012,09,15,03,23,12.10
2012,09,15,03,24,12.10
2012,09,15,03,25,12.10
2012,09,15,03,26,12.10
2012,09,15,03,27,12.10
2012,09,15,03,28,12.10
2012,09,15,03,29,12.10
2012,09,15,03,30,12.10
2012,09,15,03,31,12.10
2012,09,15,03,32,12.10
2012,09,15,03,33,12.10
2012,09,15,03,34,12.10
2012,09,15,03,35,12.10
2012,09,15,03,36,12.10
2012,09,15,03,37,12.10
2012,09,15,03,38,12.10
2012,09,15,03,39,12.00
2012,09,15,03,40,12.00
2012,09,15,03,41,12.00
2012,09,15,03,42,12.00
2012,09,15,03,43,11.90
2012,09,15,03,44,11.90
2012,09,15,03,45,11.90
2012,09,15,03,46,11.90
2012,09,15,03,47,11.80
2012,09,15,03,48,11.80
2012,09,15,03,49,11.80
2012,09,15,03,50,11.80
2012,09,15,03,51,11.80
2012,09,15,03,52,11.80
2012,09,15,03,53,11.70
2012,09,15,03,54,11.70
2012,09,15,03,55,11.70
2012,09,15,03,56,11.70
2012,09,15,03,57,11.70
2012,09,15,03,58,11.70
2012,09,15,03,59,11.70
2012,09,15,04,00,11.70
2012,09,15,04,01,11.70
2012,09,15,04,02,11.70
2012,09,15,04,03,11.70
2012,09,15,04,04,11.80
2012,09,15,04,05,11.80
2012,09,15,04,06,11.80
2012,09,15,04,07,11.80
2012,09,15,04,08,11.80
2012,09,15,04,09,11.80
2012,09,15,04,10,11.80
2012,09,15,04,11,11.80
2012,09,15,04,12,11.80
2012,09,15,04,13,11.70
2012,09,15,04,14,11.70
2012,09,15,04,15,11.70
2012,09,15,04,16,11.70
2012,09,15,04,17,11.70
2012,09,15,04,18,11.70
2012,09,15,04,19,11.70
2012,09,15,04,20,11.70
2012,09,15,04,21,11.70
2012,09,15,04,22,11.70
2012,09,15,04,23,11.70
2012,09,15,04,24,11.70
2012,09,15,04,25,11.70
2012,09,15,04,26,11.60
2012,09,15,04,27,11.60
2012,09,15,04,28,11.60
2012,09,15,04,29,11.60
2012,09,15,04,30,11.60
2012,09,15,04,31,11.60
2012,09,15,04,32,11.60
2012,09,15,04,33,11.60
2012,09,15,04,34,11.60
2012,09,15,04,35,11.60
2012,09,15,04,36,11.60
2012,09,15,04,37,11.60
2012,09,15,04,38,11.60
2012,09,15,04,39,11.60
2012,09,15,04,40,11.60
2012,09,15,04,41,11.60
2012,09,15,04,42,11.50
2012,09,15,04,43,11.50
2012,09,15,04,44,11.50
2012,09,15,04,45,11.50
2012,09,15,04,46,11.40
2012,09,15,04,47,11.40
2012,09,15,04,48,11.40
2012,09,15,04,49,11.40
2012,09,15,04,50,11.40
2012,09,15,04,51,11.40
2012,09,15,04,52,11.40
2012,09,15,04,53,11.40
2012,09,15,04,54,11.40
2012,09,15,04,55,11.50
2012,09,15,04,56,11.50
2012,09,15,04,57,11.50
2012,09,15,04,58,11.50
2012,09,15,04,59,11.50
2012,09,15,05,00,11.50
2012,09,15,05,01,11.50
2012,09,15,05,02,11.50
2012,09,15,05,03,11.50
2012,09,15,05,04,11.50
2012,09,15,05,05,11.40
2012,09,15,05,06,11.40
2012,09,15,05,07,11.40
2012,09,15,05,08,11.40
2012,09,15,05,09,11.40
2012,09,15,05,10,11.30
2012,09,15,05,11,11.30
2012,09,15,05,12,11.30
2012,09,15,05,13,11.30
2012,09,15,05,14,11.30
2012,09,15,05,15,11.30
2012,09,15,05,16,11.30
2012,09,15,05,17,11.20
2012,09,15,05,18,11.20
2012,09,15,05,19,11.20
2012,09,15,05,20,11.20
2012,09,15,05,21,11.20
2012,09,15,05,22,11.20
2012,09,15,05,23,11.20
2012,09,15,05,24,11.20
2012,09,15,05,25,11.20
2012,09,15,05,26,11.20
2012,09,15,05,27,11.20
2012,09,15,05,28,11.20
2012,09,15,05,29,11.20
2012,09,15,05,30,11.10
2012,09,15,05,31,11.20
2012,09,15,05,32,11.20
2012,09,15,05,33,11.20
2012,09,15,05,34,11.20
2012,09,15,05,35,11.20
2012,09,15,05,36,11.20
2012,09,15,05,37,11.20
2012,09,15,05,38,11.20
2012,09,15,05,39,11.20
2012,09,15,05,40,11.20
2012,09,15,05,41,11.20
2012,09,15,05,42,11.20
2012,09,15,05,43,11.20
2012,09,15,05,44,11.20
2012,09,15,05,45,11.20
2012,09,15,05,46,11.10
2012,09,15,05,47,11.10
2012,09,15,05,48,11.10
2012,09,15,05,49,11.10
2012,09,15,05,50,11.10
2012,09,15,05,51,11.10
2012,09,15,05,52,11.10
2012,09,15,05,53,11.10
2012,09,15,05,54,11.10
2012,09,15,05,55,11.00
2012,09,15,05,56,11.00
2012,09,15,05,57,11.00
2012,09,15,05,58,11.00
2012,09,15,05,59,11.00
2012,09,15,06,00,11.00
2012,09,15,06,01,11.00
2012,09,15,06,02,11.00
2012,09,15,06,03,11.00
2012,09,15,06,04,11.00
2012,09,15,06,05,11.00
2012,09,15,06,06,11.00
2012,09,15,06,07,11.00
2012,09,15,06,08,11.00
2012,09,15,06,09,11.00
2012,09,15,06,10,11.00
2012,09,15,06,11,11.00
2012,09,15,06,12,10.90
2012,09,15,06,13,10.90
2012,09,15,06,14,10.90
2012,09,15,06,15,10.90
2012,09,15,06,16,10.90
2012,09,15,06,17,10.90
2012,09,15,06,18,10.90
2012,09,15,06,19,10.90
2012,09,15,06,20,10.80
2012,09,15,06,21,10.80
2012,09,15,06,22,10.80
2012,09,15,06,23,10.80
2012,09,15,06,24,10.80
2012,09,15,06,25,10.80
2012,09,15,06,26,10.80
2012,09,15,06,27,10.80
2012,09,15,06,28,10.80
2012,09,15,06,29,10.80
2012,09,15,06,30,10.80
2012,09,15,06,31,10.70
2012,09,15,06,32,10.70
2012,09,15,06,33,10.70
2012,09,15,06,34,10.70
2012,09,15,06,35,10.70
2012,09,15,06,36,10.70
2012,09,15,06,37,10.70
2012,09,15,06,38,10.70
2012,09,15,06,39,10.70
2012,09,15,06,40,10.70
2012,09,15,06,41,10.70
2012,09,15,06,42,10.70
2012,09,15,06,43,10.70
2012,09,15,06,44,10.70
2012,09,15,06,45,10.70
2012,09,15,06,46,10.70
2012,09,15,06,47,10.70
2012,09,15,06,48,10.70
2012,09,15,06,49,10.70
2012,09,15,06,50,10.70
2012,09,15,06,51,10.70
2012,09,15,06,52,10.70
2012,09,15,06,53,10.70
2012,09,15,06,54,10.70
2012,09,15,06,55,10.70
2012,09,15,06,56,10.70
2012,09,15,06,57,10.70
2012,09,15,06,58,10.70
2012,09,15,06,59,10.70
2012,09,15,07,00,10.70
2012,09,15,07,01,10.70
2012,09,15,07,02,10.70
2012,09,15,07,03,10.70
2012,09,15,07,04,10.70
2012,09,15,07,05,10.70
2012,09,15,07,06,10.70
2012,09,15,07,07,10.60
2012,09,15,07,08,10.60
2012,09,15,07,09,10.60
2012,09,15,07,10,10.60
2012,09,15,07,11,10.60
2012,09,15,07,12,10.60
2012,09,15,07,13,10.60
2012,09,15,07,14,10.60
2012,09,15,07,15,10.60
2012,09,15,07,16,10.60
2012,09,15,07,17,10.60
2012,09,15,07,18,10.60
2012,09,15,07,19,10.60
2012,09,15,07,20,10.60
2012,09,15,07,21,10.60
2012,09,15,07,22,10.60
2012,09,15,07,23,10.60
2012,09,15,07,24,10.60
2012,09,15,07,25,10.60
2012,09,15,07,26,10.60
2012,09,15,07,27,10.60
2012,09,15,07,28,10.60
2012,09,15,07,29,10.60
2012,09,15,07,30,10.60
2012,09,15,07,31,10.60
2012,09,15,07,32,10.60
2012,09,15,07,33,10.60
2012,09,15,07,34,10.60
2012,09,15,07,35,10.60
2012,09,15,07,36,10.60
2012,09,15,07,37,10.60
2012,09,15,07,38,10.60
2012,09,15,07,39,10.60
2012,09,15,07,40,10.60
2012,09,15,07,41,10.60
2012,09,15,07,42,10.50
2012,09,15,07,43,10.50
2012,09,15,07,44,10.50
2012,09,15,07,45,10.50
2012,09,15,07,46,10.50
2012,09,15,07,47,10.50
2012,09,15,07,48,10.50
2012,09,15,07,49,10.50
2012,09,15,07,50,10.50
2012,09,15,07,51,10.50
2012,09,15,07,52,10.50
2012,09,15,07,53,10.50
2012,09,15,07,54,10.50
2012,09,15,07,55,10.50
2012,09,15,07,56,10.60
2012,09,15,07,57,10.60
2012,09,15,07,58,10.60
2012,09,15,07,59,10.60
2012,09,15,08,00,10.70
2012,09,15,08,01,10.70
2012,09,15,08,02,10.70
2012,09,15,08,03,10.70
2012,09,15,08,04,10.80
2012,09,15,08,05,10.80
2012,09,15,08,06,10.80
2012,09,15,08,07,10.90
2012,09,15,08,08,10.90
2012,09,15,08,09,10.90
2012,09,15,08,10,11.00
2012,09,15,08,11,11.00
2012,09,15,08,12,11.00
2012,09,15,08,13,11.10
2012,09,15,08,14,11.10
2012,09,15,08,15,11.10
2012,09,15,08,16,11.20
2012,09,15,08,17,11.20
2012,09,15,08,18,11.20
2012,09,15,08,19,11.30
2012,09,15,08,20,11.30
2012,09,15,08,21,11.30
2012,09,15,08,22,11.40
2012,09,15,08,23,11.50
2012,09,15,08,24,11.50
2012,09,15,08,25,11.60
2012,09,15,08,26,11.70
2012,09,15,08,27,11.80
2012,09,15,08,28,11.90
2012,09,15,08,29,11.90
2012,09,15,08,30,12.00
2012,09,15,08,31,12.10
2012,09,15,08,32,12.20
2012,09,15,08,33,12.30
2012,09,15,08,34,12.40
2012,09,15,08,35,12.40
2012,09,15,08,36,12.50
2012,09,15,08,37,12.60
2012,09,15,08,38,12.70
2012,09,15,08,39,12.80
2012,09,15,08,40,12.90
2012,09,15,08,41,13.00
2012,09,15,08,42,13.10
2012,09,15,08,43,13.20
2012,09,15,08,44,13.40
2012,09,15,08,45,13.50
2012,09,15,08,46,13.60
2012,09,15,08,47,13.70
2012,09,15,08,48,13.80
2012,09,15,08,49,14.00
2012,09,15,08,50,14.10
2012,09,15,08,51,14.30
2012,09,15,08,52,14.50
2012,09,15,08,53,14.70
2012,09,15,08,54,14.80
2012,09,15,08,55,15.00
2012,09,15,08,56,15.20
2012,09,15,08,57,15.30
2012,09,15,08,58,15.30
2012,09,15,08,59,15.40
2012,09,15,09,00,15.40
2012,09,15,09,01,15.50
2012,09,15,09,02,15.50
2012,09,15,09,03,15.50
2012,09,15,09,04,15.50
2012,09,15,09,05,15.60
2012,09,15,09,06,15.60
2012,09,15,09,07,15.60
2012,09,15,09,08,15.60
2012,09,15,09,09,15.60
2012,09,15,09,10,15.60
2012,09,15,09,11,15.50
2012,09,15,09,12,15.50
2012,09,15,09,13,15.50
2012,09,15,09,14,15.50
2012,09,15,09,15,15.60
2012,09,15,09,16,15.60
2012,09,15,09,17,15.60
2012,09,15,09,18,15.60
2012,09,15,09,19,15.70
2012,09,15,09,20,15.70
2012,09,15,09,21,15.80
2012,09,15,09,22,15.80
2012,09,15,09,23,15.80
2012,09,15,09,24,15.80
2012,09,15,09,25,15.80
2012,09,15,09,26,15.90
2012,09,15,09,27,15.90
2012,09,15,09,28,15.90
2012,09,15,09,29,15.90
2012,09,15,09,30,16.00
2012,09,15,09,31,16.00
2012,09,15,09,32,16.10
2012,09,15,09,33,16.10
2012,09,15,09,34,16.10
2012,09,15,09,35,16.10
2012,09,15,09,36,16.20
2012,09,15,09,37,16.20
2012,09,15,09,38,16.20
2012,09,15,09,39,16.30
2012,09,15,09,40,16.30
2012,09,15,09,41,16.40
2012,09,15,09,42,16.40
2012,09,15,09,43,16.50
2012,09,15,09,44,16.60
2012,09,15,09,45,16.60
2012,09,15,09,46,16.70
2012,09,15,09,47,16.70
2012,09,15,09,48,16.70
2012,09,15,09,49,16.80
2012,09,15,09,50,16.80
2012,09,15,09,51,16.90
2012,09,15,09,52,16.90
2012,09,15,09,53,16.90
2012,09,15,09,54,17.00
2012,09,15,09,55,17.00
2012,09,15,09,56,17.00
2012,09,15,09,57,17.00
2012,09,15,09,58,17.10
2012,09,15,09,59,17.10
2012,09,15,10,00,17.00
2012,09,15,10,01,17.00
2012,09,15,10,02,17.00
2012,09,15,10,03,17.00
2012,09,15,10,04,17.10
2012,09,15,10,05,17.10
2012,09,15,10,06,17.20
2012,09,15,10,07,17.20
2012,09,15,10,08,17.20
2012,09,15,10,09,17.30
2012,09,15,10,10,17.30
2012,09,15,10,11,17.30
2012,09,15,10,12,17.40
2012,09,15,10,13,17.40
2012,09,15,10,14,17.40
2012,09,15,10,15,17.50
2012,09,15,10,16,17.50
2012,09,15,10,17,17.60
2012,09,15,10,18,17.60
2012,09,15,10,19,17.60
2012,09,15,10,20,17.60
2012,09,15,10,21,17.60
2012,09,15,10,22,17.50
2012,09,15,10,23,17.50
2012,09,15,10,24,17.60
2012,09,15,10,25,17.60
2012,09,15,10,26,17.60
2012,09,15,10,27,17.60
2012,09,15,10,28,17.50
2012,09,15,10,29,17.50
2012,09,15,10,30,17.50
2012,09,15,10,31,17.60
2012,09,15,10,32,17.60
2012,09,15,10,33,17.60
2012,09,15,10,34,17.70
2012,09,15,10,35,17.80
2012,09,15,10,36,17.80
2012,09,15,10,37,17.80
2012,09,15,10,38,17.90
2012,09,15,10,39,17.90
2012,09,15,10,40,18.00
2012,09,15,10,41,18.00
2012,09,15,10,42,18.10
2012,09,15,10,43,18.10
2012,09,15,10,44,18.10
2012,09,15,10,45,18.10
2012,09,15,10,46,18.10
2012,09,15,10,47,18.10
2012,09,15,10,48,18.20
2012,09,15,10,49,18.20
2012,09,15,10,50,18.20
2012,09,15,10,51,18.20
2012,09,15,10,52,18.30
2012,09,15,10,53,18.30
2012,09,15,10,54,18.30
2012,09,15,10,55,18.40
2012,09,15,10,56,18.40
2012,09,15,10,57,18.50
2012,09,15,10,58,18.60
2012,09,15,10,59,18.60
2012,09,15,11,00,18.60
2012,09,15,11,01,18.60
2012,09,15,11,02,18.60
2012,09,15,11,03,18.70
2012,09,15,11,04,18.70
2012,09,15,11,05,18.80
2012,09,15,11,06,18.80
2012,09,15,11,07,18.80
2012,09,15,11,08,18.90
2012,09,15,11,09,18.90
2012,09,15,11,10,18.90
2012,09,15,11,11,18.90
2012,09,15,11,12,18.90
2012,09,15,11,13,18.80
2012,09,15,11,14,18.80
2012,09,15,11,15,18.80
2012,09,15,11,16,18.80
2012,09,15,11,17,18.80
2012,09,15,11,18,18.80
2012,09,15,11,19,18.80
2012,09,15,11,20,18.80
2012,09,15,11,21,18.90
2012,09,15,11,22,18.90
2012,09,15,11,23,18.90
2012,09,15,11,24,18.90
2012,09,15,11,25,19.00
2012,09,15,11,26,19.00
2012,09,15,11,27,19.10
2012,09,15,11,28,19.10
2012,09,15,11,29,19.10
2012,09,15,11,30,19.20
2012,09,15,11,31,19.20
2012,09,15,11,32,19.20
2012,09,15,11,33,19.20
2012,09,15,11,34,19.20
2012,09,15,11,35,19.30
2012,09,15,11,36,19.30
2012,09,15,11,37,19.30
2012,09,15,11,38,19.30
2012,09,15,11,39,19.30
2012,09,15,11,40,19.30
2012,09,15,11,41,19.30
2012,09,15,11,42,19.30
2012,09,15,11,43,19.30
2012,09,15,11,44,19.30
2012,09,15,11,45,19.30
2012,09,15,11,46,19.30
2012,09,15,11,47,19.30
2012,09,15,11,48,19.30
2012,09,15,11,49,19.30
2012,09,15,11,50,19.30
2012,09,15,11,51,19.30
2012,09,15,11,52,19.30
2012,09,15,11,53,19.30
2012,09,15,11,54,19.30
2012,09,15,11,55,19.30
2012,09,15,11,56,19.30
2012,09,15,11,57,19.30
2012,09,15,11,58,19.30
2012,09,15,11,59,19.30
2012,09,15,12,00,19.40
2012,09,15,12,01,19.40
2012,09,15,12,02,19.40
2012,09,15,12,03,19.50
2012,09,15,12,04,19.60
2012,09,15,12,05,19.60
2012,09,15,12,06,19.60
2012,09,15,12,07,19.50
2012,09,15,12,08,19.50
2012,09,15,12,09,19.50
2012,09,15,12,10,19.40
2012,09,15,12,11,19.40
2012,09,15,12,12,19.50
2012,09,15,12,13,19.50
2012,09,15,12,14,19.50
2012,09,15,12,15,19.60
2012,09,15,12,16,19.60
2012,09,15,12,17,19.60
2012,09,15,12,18,19.60
2012,09,15,12,19,19.60
2012,09,15,12,20,19.60
2012,09,15,12,21,19.60
2012,09,15,12,22,19.60
2012,09,15,12,23,19.60
2012,09,15,12,24,19.60
2012,09,15,12,25,19.70
2012,09,15,12,26,19.70
2012,09,15,12,27,19.70
2012,09,15,12,28,19.70
2012,09,15,12,29,19.80
2012,09,15,12,30,19.80
2012,09,15,12,31,19.80
2012,09,15,12,32,19.80
2012,09,15,12,33,19.80
2012,09,15,12,34,19.80
2012,09,15,12,35,19.80
2012,09,15,12,36,19.80
2012,09,15,12,37,19.80
2012,09,15,12,38,19.90
2012,09,15,12,39,19.90
2012,09,15,12,40,19.90
2012,09,15,12,41,19.90
2012,09,15,12,42,19.90
2012,09,15,12,43,19.90
2012,09,15,12,44,19.90
2012,09,15,12,45,20.00
2012,09,15,12,46,20.00
2012,09,15,12,47,20.00
2012,09,15,12,48,20.00
2012,09,15,12,49,20.00
2012,09,15,12,50,20.00
2012,09,15,12,51,20.00
2012,09,15,12,52,20.00
2012,09,15,12,53,19.90
2012,09,15,12,54,19.90
2012,09,15,12,55,19.90
2012,09,15,12,56,19.90
2012,09,15,12,57,19.90
2012,09,15,12,58,19.90
2012,09,15,12,59,19.90
2012,09,15,13,00,19.90
2012,09,15,13,01,19.90
2012,09,15,13,02,20.00
2012,09,15,13,03,20.10
2012,09,15,13,04,20.10
2012,09,15,13,05,20.10
2012,09,15,13,06,20.10
2012,09,15,13,07,20.10
2012,09,15,13,08,20.10
2012,09,15,13,09,20.10
2012,09,15,13,10,20.20
2012,09,15,13,11,20.20
2012,09,15,13,12,20.20
2012,09,15,13,13,20.20
2012,09,15,13,14,20.20
2012,09,15,13,15,20.30
2012,09,15,13,16,20.30
2012,09,15,13,17,20.30
2012,09,15,13,18,20.30
2012,09,15,13,19,20.30
2012,09,15,13,20,20.30
2012,09,15,13,21,20.30
2012,09,15,13,22,20.30
2012,09,15,13,23,20.30
2012,09,15,13,24,20.30
2012,09,15,13,25,20.30
2012,09,15,13,26,20.30
2012,09,15,13,27,20.40
2012,09,15,13,28,20.40
2012,09,15,13,29,20.40
2012,09,15,13,30,20.40
2012,09,15,13,31,20.40
2012,09,15,13,32,20.40
2012,09,15,13,33,20.40
2012,09,15,13,34,20.40
2012,09,15,13,35,20.40
2012,09,15,13,36,20.40
2012,09,15,13,37,20.40
2012,09,15,13,38,20.40
2012,09,15,13,39,20.40
2012,09,15,13,40,20.40
2012,09,15,13,41,20.40
2012,09,15,13,42,20.40
2012,09,15,13,43,20.50
2012,09,15,13,44,20.50
2012,09,15,13,45,20.60
2012,09,15,13,46,20.60
2012,09,15,13,47,20.60
2012,09,15,13,48,20.60
2012,09,15,13,49,20.60
2012,09,15,13,50,20.50
2012,09,15,13,51,20.50
2012,09,15,13,52,20.40
2012,09,15,13,53,20.40
2012,09,15,13,54,20.40
2012,09,15,13,55,20.40
2012,09,15,13,56,20.30
2012,09,15,13,57,20.30
2012,09,15,13,58,20.20
2012,09,15,13,59,20.10
2012,09,15,14,00,20.10
2012,09,15,14,01,20.00
2012,09,15,14,02,20.00
2012,09,15,14,03,19.90
2012,09,15,14,04,20.00
2012,09,15,14,05,20.00
2012,09,15,14,06,20.00
2012,09,15,14,07,20.10
2012,09,15,14,08,20.10
2012,09,15,14,09,20.10
2012,09,15,14,10,20.20
2012,09,15,14,11,20.20
2012,09,15,14,12,20.20
2012,09,15,14,13,20.30
2012,09,15,14,14,20.30
2012,09,15,14,15,20.30
2012,09,15,14,16,20.30
2012,09,15,14,17,20.30
2012,09,15,14,18,20.30
2012,09,15,14,19,20.30
2012,09,15,14,20,20.30
2012,09,15,14,21,20.30
2012,09,15,14,22,20.30
2012,09,15,14,23,20.20
2012,09,15,14,24,20.20
2012,09,15,14,25,20.20
2012,09,15,14,26,20.20
2012,09,15,14,27,20.20
2012,09,15,14,28,20.20
2012,09,15,14,29,20.30
2012,09,15,14,30,20.30
2012,09,15,14,31,20.30
2012,09,15,14,32,20.30
2012,09,15,14,33,20.30
2012,09,15,14,34,20.30
2012,09,15,14,35,20.30
2012,09,15,14,36,20.30
2012,09,15,14,37,20.30
2012,09,15,14,38,20.30
2012,09,15,14,39,20.30
2012,09,15,14,40,20.30
2012,09,15,14,41,20.30
2012,09,15,14,42,20.30
2012,09,15,14,43,20.30
2012,09,15,14,44,20.30
2012,09,15,14,45,20.40
2012,09,15,14,46,20.40
2012,09,15,14,47,20.40
2012,09,15,14,48,20.40
2012,09,15,14,49,20.40
2012,09,15,14,50,20.40
2012,09,15,14,51,20.40
2012,09,15,14,52,20.40
2012,09,15,14,53,20.40
2012,09,15,14,54,20.40
2012,09,15,14,55,20.30
2012,09,15,14,56,20.30
2012,09,15,14,57,20.30
2012,09,15,14,58,20.30
2012,09,15,14,59,20.30
2012,09,15,15,00,20.30
2012,09,15,15,01,20.30
2012,09,15,15,02,20.40
2012,09,15,15,03,20.40
2012,09,15,15,04,20.40
2012,09,15,15,05,20.50
2012,09,15,15,06,20.60
2012,09,15,15,07,20.60
2012,09,15,15,08,20.60
2012,09,15,15,09,20.50
2012,09,15,15,10,20.50
2012,09,15,15,11,20.50
2012,09,15,15,12,20.50
2012,09,15,15,13,20.50
2012,09,15,15,14,20.50
2012,09,15,15,15,20.60
2012,09,15,15,16,20.60
2012,09,15,15,17,20.60
2012,09,15,15,18,20.60
2012,09,15,15,19,20.60
2012,09,15,15,20,20.60
2012,09,15,15,21,20.60
2012,09,15,15,22,20.60
2012,09,15,15,23,20.70
2012,09,15,15,24,20.70
2012,09,15,15,25,20.70
2012,09,15,15,26,20.70
2012,09,15,15,27,20.70
2012,09,15,15,28,20.70
2012,09,15,15,29,20.70
2012,09,15,15,30,20.70
2012,09,15,15,31,20.70
2012,09,15,15,32,20.70
2012,09,15,15,33,20.70
2012,09,15,15,34,20.80
2012,09,15,15,35,20.80
2012,09,15,15,36,20.80
2012,09,15,15,37,20.80
2012,09,15,15,38,20.80
2012,09,15,15,39,20.80
2012,09,15,15,40,20.70
2012,09,15,15,41,20.70
2012,09,15,15,42,20.70
2012,09,15,15,43,20.70
2012,09,15,15,44,20.70
2012,09,15,15,45,20.70
2012,09,15,15,46,20.70
2012,09,15,15,47,20.80
2012,09,15,15,48,20.80
2012,09,15,15,49,20.80
2012,09,15,15,50,20.80
2012,09,15,15,51,20.80
2012,09,15,15,52,20.80
2012,09,15,15,53,20.80
2012,09,15,15,54,20.80
2012,09,15,15,55,20.80
2012,09,15,15,56,20.80
2012,09,15,15,57,20.70
2012,09,15,15,58,20.70
2012,09,15,15,59,20.70
2012,09,15,16,00,20.70
2012,09,15,16,01,20.70
2012,09,15,16,02,20.70
2012,09,15,16,03,20.70
2012,09,15,16,04,20.60
2012,09,15,16,05,20.60
2012,09,15,16,06,20.60
2012,09,15,16,07,20.60
2012,09,15,16,08,20.50
2012,09,15,16,09,20.50
2012,09,15,16,10,20.50
2012,09,15,16,11,20.50
2012,09,15,16,12,20.40
2012,09,15,16,13,20.40
2012,09,15,16,14,20.40
2012,09,15,16,15,20.40
2012,09,15,16,16,20.50
2012,09,15,16,17,20.50
2012,09,15,16,18,20.60
2012,09,15,16,19,20.60
2012,09,15,16,20,20.60
2012,09,15,16,21,20.60
2012,09,15,16,22,20.60
2012,09,15,16,23,20.60
2012,09,15,16,24,20.70
2012,09,15,16,25,20.70
2012,09,15,16,26,20.70
2012,09,15,16,27,20.70
2012,09,15,16,28,20.70
2012,09,15,16,29,20.70
2012,09,15,16,30,20.70
2012,09,15,16,31,20.70
2012,09,15,16,32,20.70
2012,09,15,16,33,20.70
2012,09,15,16,34,20.70
2012,09,15,16,35,20.70
2012,09,15,16,36,20.70
2012,09,15,16,37,20.70
2012,09,15,16,38,20.70
2012,09,15,16,39,20.60
2012,09,15,16,40,20.60
2012,09,15,16,41,20.60
2012,09,15,16,42,20.60
2012,09,15,16,43,20.60
2012,09,15,16,44,20.60
2012,09,15,16,45,20.60
2012,09,15,16,46,20.60
2012,09,15,16,47,20.60
2012,09,15,16,48,20.60
2012,09,15,16,49,20.60
2012,09,15,16,50,20.60
2012,09,15,16,51,20.60
2012,09,15,16,52,20.60
2012,09,15,16,53,20.50
2012,09,15,16,54,20.50
2012,09,15,16,55,20.50
2012,09,15,16,56,20.50
2012,09,15,16,57,20.50
2012,09,15,16,58,20.50
2012,09,15,16,59,20.50
2012,09,15,17,00,20.50
2012,09,15,17,01,20.50
2012,09,15,17,02,20.50
2012,09,15,17,03,20.40
2012,09,15,17,04,20.50
2012,09,15,17,05,20.50
2012,09,15,17,06,20.50
2012,09,15,17,07,20.50
2012,09,15,17,08,20.50
2012,09,15,17,09,20.50
2012,09,15,17,10,20.50
2012,09,15,17,11,20.50
2012,09,15,17,12,20.50
2012,09,15,17,13,20.50
2012,09,15,17,14,20.60
2012,09,15,17,15,20.60
2012,09,15,17,16,20.60
2012,09,15,17,17,20.60
2012,09,15,17,18,20.60
2012,09,15,17,19,20.60